Theta_e
355 356 357 356 358 357 360 358 359 361 363 363 361 361 364 362 362 362 360 359 361 357 358 355 361 359 357 360 359 360 356 355 355 355 357 358 359 360 362 360 360 360 360 360 360 360 360 360 359 358 358 358 357 357 357 357 357 357 358 357 357 357 356 356 355 355 354 354 353 353 353 353 353 353 354 353 353 353 353 353 354 354 354 354 354
354 356 357 356 358 357 358 359 359 363 363 363 363 363 360 361 361 361 358 358 358 359 361 359 354 354 358 363 354 360 360 354 355 355 357 358 359 359 362 361 360 360 360 360 360 360 360 360 360 359 359 358 357 357 357 357 357 357 357 356 356 356 355 355 354 354 353 354 354 353 354 353 353 353 353 353 354 353 354 353 354 354 354 354 354
358 357 358 358 358 360 360 362 361 362 364 363 364 361 361 362 362 362 361 358 358 358 361 361 359 357 357 356 355 358 356 354 353 354 354 357 358 360 361 363 361 361 361 361 360 360 360 360 360 360 359 358 357 357 356 356 356 356 356 355 355 355 355 354 354 354 354 354 354 354 354 353 354 354 353 353 354 354 354 353 353 354 354 354 354
356 359 360 362 361 362 361 360 362 366 365 363 367 364 361 361 360 361 359 361 361 362 361 363 360 358 365 352 354 356 357 353 349 350 352 356 358 360 360 360 362 362 362 361 360 360 360 360 360 360 359 358 358 358 357 357 356 356 355 355 355 355 354 355 354 354 355 354 354 353 353 353 353 353 354 353 354 354 354 354 354 354 354 353 354
357 359 360 360 360 361 359 360 362 365 364 361 363 361 361 360 361 361 360 361 358 357 357 362 358 356 356 350 352 354 358 363 351 350 351 355 357 359 360 360 360 362 362 361 361 362 361 360 360 360 360 359 358 358 357 357 357 356 356 356 356 355 356 355 355 354 354 353 353 354 354 354 353 354 354 354 354 354 354 354 354 354 354 354 353
359 362 361 360 362 364 362 360 364 364 365 366 364 361 359 357 357 358 357 357 355 357 357 359 354 353 356 361 363 358 354 353 356 349 352 355 357 358 359 359 360 360 360 361 362 362 362 361 360 360 361 360 359 359 358 358 358 357 357 356 357 357 356 356 356 356 356 356 356 356 355 355 355 355 355 355 354 354 354 354 354 354 353 353 354
361 362 363 366 362 363 366 364 365 368 365 363 359 358 356 358 359 354 357 358 358 363 355 351 353 356 354 357 358 364 356 354 358 352 352 353 358 358 358 358 359 360 360 360 362 362 362 361 361 360 360 360 360 360 359 359 358 358 358 358 357 357 357 356 357 356 356 357 357 356 356 356 356 356 355 355 354 354 354 354 354 353 353 353 353
365 365 365 366 365 362 364 369 367 367 365 365 363 358 360 359 356 354 352 351 351 350 351 351 352 349 354 358 355 361 362 361 357 349 350 353 354 358 360 360 360 360 362 360 360 361 362 362 361 361 360 360 359 360 360 358 359 359 358 358 358 358 357 357 357 357 357 357 357 357 357 357 356 356 355 355 354 354 354 354 353 353 352 352 352
369 368 367 366 364 364 366 365 368 368 371 368 360 362 362 356 356 355 354 361 352 345 350 352 352 348 359 353 351 362 358 357 357 356 354 354 352 356 359 360 362 364 361 360 359 361 362 362 362 362 360 360 360 359 359 358 359 359 358 359 359 359 358 357 358 358 357 356 357 357 357 357 356 356 356 355 355 354 354 354 353 352 352 352 351
370 369 371 366 367 367 366 369 369 369 371 369 363 365 362 358 359 361 363 362 359 353 350 351 346 347 351 346 359 356 356 361 359 368 366 356 362 353 355 357 359 359 359 359 360 361 359 362 363 362 361 361 361 360 360 359 359 359 359 359 359 358 358 358 358 358 357 357 358 357 357 357 356 355 355 355 355 354 354 353 352 352 352 351 350
369 368 368 368 365 368 369 368 369 369 368 368 364 361 363 362 363 366 370 364 366 358 358 356 353 352 345 347 359 358 362 358 369 360 356 354 352 352 351 357 354 358 359 359 360 359 357 360 361 360 360 362 362 361 361 361 361 360 360 359 359 359 359 358 358 358 358 358 359 357 357 356 356 355 355 354 355 354 353 352 352 352 352 350 349
371 370 368 368 367 365 368 367 367 368 367 364 362 361 360 361 361 360 362 361 363 365 361 366 354 352 354 351 358 363 362 360 362 358 356 354 357 362 352 352 356 356 354 357 360 359 359 357 359 357 357 360 362 362 362 362 362 361 361 360 359 359 358 359 359 358 358 358 358 358 357 357 356 356 356 355 354 354 353 353 353 352 351 350 348
371 370 367 368 367 367 368 365 366 364 365 364 364 363 366 368 367 366 361 362 359 358 357 356 356 354 360 347 359 355 359 360 353 352 354 355 355 360 355 351 352 353 355 355 356 355 359 360 359 359 359 357 360 362 362 362 362 362 361 361 360 359 359 359 359 358 358 358 358 358 357 357 357 356 356 355 354 354 353 353 352 351 351 349 348
371 371 371 367 364 363 365 365 364 368 364 366 365 364 362 363 366 364 366 361 365 350 352 360 352 347 348 345 351 355 361 351 348 347 348 350 351 358 355 347 347 349 351 354 355 353 353 357 359 358 359 358 356 358 360 360 361 362 362 362 361 360 359 358 359 358 359 359 358 358 357 357 358 357 356 356 354 354 353 353 352 351 350 349 347
371 371 371 368 366 364 364 367 365 366 365 365 366 362 362 362 364 363 364 363 365 358 362 355 350 350 355 350 344 341 357 360 350 346 344 345 346 345 349 344 344 346 354 352 351 352 352 350 352 357 360 360 359 358 356 359 360 362 362 362 362 361 361 360 359 358 357 358 358 358 358 358 358 357 356 356 355 354 353 352 352 350 349 349 347
366 367 368 368 368 365 365 369 365 366 365 363 364 362 360 365 363 361 365 356 348 351 362 360 359 349 343 344 342 343 340 348 349 350 344 343 342 338 341 345 347 364 356 359 351 351 357 352 350 360 363 364 364 359 360 359 361 364 364 362 361 361 361 361 361 359 358 357 357 357 358 358 357 357 356 356 355 354 353 352 351 350 350 350 350
367 368 368 371 372 372 369 368 374 369 365 364 364 362 361 363 365 365 363 359 348 351 355 352 357 360 358 349 344 344 340 340 336 344 343 342 340 339 351 345 348 354 354 355 356 356 350 353 356 355 362 360 357 359 360 362 362 367 362 363 362 361 361 361 361 361 360 359 358 358 358 358 357 357 357 355 354 354 353 351 351 351 351 351 350
368 368 367 370 372 373 373 369 366 369 366 365 366 368 363 365 366 367 363 363 362 350 347 356 350 363 362 355 351 342 343 346 345 342 354 346 340 345 348 346 351 350 355 346 351 351 360 352 357 357 356 357 358 355 355 364 366 363 363 361 362 362 360 359 359 360 361 360 359 359 358 359 358 357 356 354 353 352 352 353 352 351 351 350 350
359 366 367 371 372 374 373 371 369 368 370 370 370 364 363 361 363 365 365 369 369 364 350 349 363 360 348 347 348 348 346 354 343 347 350 355 355 340 338 345 346 347 349 346 345 350 348 355 352 353 357 359 358 358 364 359 364 365 366 364 363 362 360 360 360 360 360 360 360 359 359 358 359 358 357 356 354 354 353 353 353 352 352 352 351
360 368 369 370 372 372 374 372 370 366 370 368 365 359 367 363 362 366 372 374 368 366 359 347 353 357 360 354 348 354 354 348 348 348 353 346 350 355 342 340 340 343 346 346 345 347 346 351 349 352 356 357 358 359 357 354 357 364 364 364 363 363 361 361 361 360 359 360 360 359 359 359 358 359 358 357 356 355 354 353 353 353 353 353 352
365 366 368 370 371 372 372 373 371 371 370 366 363 363 365 369 370 370 370 371 372 370 369 367 358 348 357 357 358 354 347 350 352 360 356 343 339 348 345 343 344 348 346 348 339 339 343 351 354 346 355 357 355 358 356 361 361 361 363 363 364 364 362 361 360 361 359 359 359 359 359 359 359 359 358 358 357 357 356 355 354 353 354 354 353
361 369 369 369 370 371 369 367 368 362 365 363 366 364 367 370 370 371 370 368 374 374 370 374 362 359 360 363 360 359 355 358 347 345 344 352 346 346 344 343 341 354 357 351 343 345 353 348 346 345 348 355 356 357 356 359 361 360 361 362 363 362 362 360 359 360 359 359 358 358 358 359 359 359 359 358 358 357 356 356 355 354 354 354 354
357 363 368 366 369 370 365 365 366 367 371 369 368 363 360 364 365 371 370 369 363 369 367 369 373 367 358 364 358 353 354 350 357 354 349 351 350 341 338 339 336 338 355 347 365 354 350 348 351 350 352 353 355 358 357 357 361 358 360 360 359 360 360 360 358 358 356 357 359 359 359 358 358 359 359 359 358 358 358 357 356 356 356 355 353
364 362 360 361 368 369 369 368 370 371 369 367 369 366 362 361 370 369 371 370 366 371 371 366 361 364 358 354 356 354 352 352 345 355 355 360 354 342 345 352 350 345 351 357 351 346 353 348 348 347 347 354 357 363 361 360 357 359 362 361 358 358 359 361 361 357 356 355 354 357 359 359 359 358 358 359 359 359 358 358 357 357 356 356 354
363 360 359 361 368 370 368 370 372 370 374 373 372 368 378 376 369 366 369 368 370 369 370 365 359 359 354 350 348 347 347 344 353 341 348 349 347 348 346 342 351 351 352 352 352 352 355 347 345 353 354 364 358 363 363 362 360 360 360 361 357 357 357 358 359 357 355 354 354 356 357 357 356 356 356 357 358 359 358 358 358 358 357 356 356
358 360 359 359 364 368 371 370 374 374 374 375 374 370 373 372 376 371 363 370 373 371 371 364 366 365 364 360 351 353 351 344 346 345 343 343 344 345 352 355 340 351 356 352 352 346 345 353 354 362 366 361 357 363 359 353 354 362 359 359 356 354 355 355 356 355 354 354 353 354 355 356 357 357 357 357 357 357 357 357 358 359 359 358 357
358 361 365 366 364 366 369 369 370 373 373 372 370 375 374 372 375 372 374 371 369 371 369 363 360 362 365 368 363 350 358 348 350 344 351 347 352 351 356 350 345 343 355 373 359 348 343 345 346 344 353 357 364 364 363 356 355 362 359 355 360 353 352 352 352 352 352 351 352 352 353 354 355 357 358 358 357 358 357 356 357 357 358 358 357
364 364 361 368 364 366 368 367 371 369 373 373 372 370 373 372 372 372 371 366 370 369 371 369 361 365 361 369 373 360 362 357 356 353 357 357 359 356 359 355 351 343 349 346 348 351 348 348 351 353 354 357 356 361 361 359 354 359 362 357 358 358 351 350 349 349 348 348 349 350 351 352 352 353 355 358 356 355 355 353 353 353 354 356 356
364 363 361 366 367 366 365 364 370 370 371 373 371 372 373 371 370 372 369 366 371 370 371 368 368 359 361 362 372 369 369 370 365 360 375 367 363 368 367 363 363 353 343 343 346 345 349 343 345 353 356 361 366 359 360 355 356 360 362 360 358 359 354 347 347 346 346 346 346 346 347 349 349 349 351 352 353 354 354 352 350 350 351 351 353
362 358 362 362 367 368 366 367 367 368 368 368 370 370 371 371 370 371 370 372 372 371 371 370 367 368 363 365 363 365 367 366 365 355 380 364 367 368 365 367 364 351 352 344 344 351 348 350 345 361 360 362 360 366 361 361 357 355 357 360 359 358 349 347 347 346 345 345 344 343 344 346 346 346 346 346 347 349 351 351 350 349 349 348 350
363 365 364 362 364 365 368 366 367 368 369 368 370 370 370 370 368 368 370 372 371 371 372 370 366 367 370 364 370 370 370 364 370 360 367 365 368 370 369 364 359 356 352 351 344 355 358 350 352 350 356 366 356 356 359 357 356 355 355 357 358 354 349 350 346 345 344 343 341 340 340 340 340 341 341 342 343 344 346 347 348 349 349 348 348
359 366 362 362 362 362 363 361 361 363 365 365 366 369 369 368 366 363 365 369 367 368 366 367 364 368 368 366 368 371 374 369 373 368 374 368 366 365 365 365 366 362 359 354 348 346 358 353 351 354 354 353 359 357 356 364 366 356 355 357 358 355 356 356 352 346 342 341 340 339 337 336 336 338 339 341 342 344 345 345 344 345 345 346 347
358 359 362 362 364 363 361 362 360 361 365 364 364 367 368 368 369 368 369 367 366 366 368 367 364 367 369 367 368 370 373 371 371 366 364 368 367 367 368 369 366 364 360 356 351 351 357 361 359 357 357 359 353 357 355 356 357 363 361 365 364 361 361 361 360 352 346 341 338 338 337 336 336 337 338 340 341 343 344 345 344 342 341 341 341
360 356 360 361 364 364 362 362 362 362 366 366 363 365 366 367 366 364 364 369 366 366 367 365 366 365 368 367 366 367 372 368 366 362 363 359 361 360 363 361 361 363 364 360 357 355 352 359 359 361 359 362 356 362 360 360 364 368 368 368 368 367 365 364 363 364 352 346 339 336 336 335 335 335 336 338 339 340 341 341 340 338 338 338 336
361 358 359 358 363 364 363 363 363 363 365 365 363 364 365 366 365 363 362 363 365 364 364 365 364 365 365 367 364 365 365 364 365 363 361 361 359 362 363 360 359 359 363 364 360 355 354 355 360 358 357 361 361 364 368 368 368 366 363 362 361 364 365 364 363 362 352 347 344 338 335 335 335 335 335 336 337 336 337 336 334 334 334 333 332
358 361 360 359 363 365 363 364 363 362 365 363 362 363 365 366 365 365 364 363 362 363 364 364 363 363 363 363 362 363 364 363 365 365 364 362 362 363 361 362 367 368 369 370 367 360 359 355 359 359 361 360 362 365 367 369 364 363 363 363 364 363 363 364 362 361 356 348 345 343 341 337 335 334 332 333 332 331 331 330 329 330 330 329 329
357 359 361 361 363 365 362 363 363 361 364 363 362 361 363 364 365 364 364 365 363 363 364 365 366 364 363 362 362 362 364 362 363 363 362 364 363 362 362 363 362 362 362 363 361 362 358 355 356 361 364 363 364 364 365 360 362 364 366 366 365 363 365 363 362 362 351 346 344 341 340 339 337 335 333 333 332 331 330 329 329 329 328 328 327
358 357 360 360 361 363 362 362 364 363 364 364 364 362 360 361 364 364 365 365 362 363 364 364 364 364 362 363 363 364 363 360 360 362 364 364 364 363 362 363 366 366 366 366 367 366 363 360 359 358 361 359 359 362 366 366 362 360 363 364 365 366 365 364 363 364 363 362 361 362 351 345 339 334 333 334 333 332 331 330 329 328 327 326 323
355 356 357 360 362 363 363 362 362 364 364 364 365 365 363 361 362 364 362 364 363 362 363 363 362 362 362 363 364 364 363 363 361 361 365 366 363 362 365 366 365 366 364 364 366 365 362 360 359 359 358 361 361 358 367 369 368 364 359 359 359 364 367 367 363 365 365 364 359 351 352 351 347 347 338 333 331 331 331 330 329 328 327 325 323
355 356 356 358 362 363 363 363 362 365 365 364 366 367 365 363 362 363 363 362 361 362 361 363 363 361 362 362 360 362 364 364 364 364 364 365 366 363 364 366 366 366 363 364 364 363 361 359 358 357 360 359 361 362 363 362 361 363 366 363 359 360 362 365 365 362 365 366 364 365 357 354 352 348 339 340 339 335 333 334 335 334 332 329 326
356 355 358 358 359 361 364 364 363 364 365 365 365 366 365 364 362 361 362 362 361 360 361 360 362 363 362 360 360 359 363 370 366 365 365 368 365 364 366 368 368 367 367 365 364 362 360 358 356 357 357 357 358 359 359 361 360 358 366 367 362 362 363 360 362 366 364 363 365 365 364 366 363 362 362 361 361 354 352 346 346 346 339 330 327
360 357 357 360 359 360 363 365 365 364 365 365 360 351 355 363 362 358 361 362 361 360 361 361 360 361 360 359 354 367 363 362 359 358 356 359 364 366 369 371 369 367 366 364 363 362 360 357 356 355 354 354 356 358 360 364 366 368 363 362 358 360 360 359 360 363 368 364 362 361 363 365 362 360 360 357 358 358 357 356 355 351 343 334 331
361 361 358 360 359 359 360 363 363 364 365 364 349 339 342 349 361 361 360 362 363 363 361 361 360 358 358 359 357 360 369 369 361 353 352 350 353 354 357 363 370 375 368 365 362 362 359 357 357 357 355 355 358 362 364 359 367 363 362 361 359 358 356 354 351 357 371 366 360 358 358 362 361 356 356 357 357 357 356 356 346 341 334 331 329
363 362 359 359 360 361 360 362 362 363 364 355 337 336 339 340 351 362 360 361 362 363 362 359 360 360 359 356 356 354 356 360 370 365 356 351 348 349 349 350 351 350 352 357 357 357 360 359 358 357 357 356 359 363 363 364 364 364 363 361 359 358 356 354 353 351 359 364 359 355 353 357 360 358 355 356 357 358 355 342 336 335 332 331 331
364 363 361 359 359 361 361 361 361 363 363 345 334 334 336 336 338 355 360 359 357 360 362 361 359 360 360 359 356 353 350 365 365 369 367 362 348 342 346 347 347 345 339 336 338 350 353 353 354 356 357 360 359 363 369 369 369 362 362 360 360 358 357 354 353 353 356 360 355 351 350 354 356 354 353 356 357 355 350 341 336 333 332 330 329
364 364 362 361 360 361 362 363 362 362 363 341 331 331 333 333 336 344 363 361 359 358 361 363 360 360 361 360 358 356 356 361 368 366 371 368 366 361 358 357 358 357 346 336 334 333 340 349 350 349 354 358 357 360 365 368 364 361 361 359 359 356 354 353 354 354 355 357 352 350 348 352 355 353 349 348 346 344 344 337 331 331 329 326 326
364 364 362 361 361 362 361 363 364 361 361 333 328 328 329 330 333 340 363 363 360 359 361 363 364 362 362 362 362 361 360 359 361 370 369 371 371 369 365 361 361 361 361 360 357 354 349 348 350 352 354 357 357 358 363 366 366 370 368 362 359 357 356 355 354 354 353 356 357 356 345 346 349 338 339 340 341 340 342 335 332 328 328 328 329
362 366 366 363 362 362 361 360 358 361 360 328 327 327 327 328 331 350 361 364 363 364 363 362 364 366 365 364 363 362 363 365 363 353 362 370 370 370 370 368 366 366 365 363 350 350 359 358 355 355 356 358 351 365 364 363 365 367 364 362 359 356 352 348 346 348 345 350 351 346 342 338 341 337 336 339 342 341 343 345 337 330 328 328 329
359 362 363 362 364 361 360 360 359 360 364 332 324 324 325 325 332 356 361 362 362 361 362 367 368 368 368 367 367 365 365 365 357 340 340 362 368 367 367 367 367 366 365 369 348 337 337 336 337 341 341 342 337 336 333 335 350 353 357 354 350 351 347 343 343 345 347 348 348 342 340 336 339 338 337 340 340 339 342 345 345 333 327 327 326
359 361 363 364 364 362 360 360 358 361 364 339 319 321 323 322 338 359 361 361 360 359 359 361 364 367 368 371 374 368 367 367 349 337 334 352 364 365 364 363 362 361 361 363 366 366 332 331 334 338 338 337 333 332 332 329 331 343 353 349 350 349 343 345 343 345 345 345 346 345 339 338 339 340 338 338 338 343 343 342 341 341 333 330 327
362 365 365 364 362 363 361 361 358 360 360 346 316 321 319 319 336 360 362 361 359 359 358 358 360 361 364 366 366 362 364 361 342 335 330 350 364 365 364 362 359 358 359 365 369 369 366 356 357 354 354 347 352 355 355 343 337 344 351 353 352 348 345 347 347 342 334 340 344 346 337 336 336 339 337 333 330 335 342 340 339 338 339 340 339
Wind_Speed
3 3 3 3 2 3 2 1 1 1 2 1 2 1 1 1 1 1 2 1 3 2 4 3 1 3 2 2 2 2 4 4 5 5 5 5 4 7 11 10 10 10 10 10 10 10 9 9 9 9 8 8 7 7 6 7 7 6 6 6 5 5 4 4 3 2 2 2 1 2 3 4 4 5 6 7 7 7 8 8 8 8 8 8 8
5 1 3 3 4 4 2 1 1 2 3 2 2 2 4 3 3 2 2 2 3 3 1 3 4 3 2 2 5 1 3 5 5 5 6 5 4 6 11 10 10 9 9 9 9 9 9 9 8 7 8 7 6 6 6 5 6 5 5 5 4 3 3 2 1 1 0 1 2 2 3 4 4 5 6 6 7 7 7 8 7 7 7 7 7
5 5 4 4 4 4 3 3 2 1 0 2 2 2 2 1 1 1 1 2 3 1 2 3 1 5 3 3 2 4 3 5 6 7 7 5 5 4 6 9 8 8 8 8 8 7 8 8 7 7 7 6 6 6 5 5 4 4 3 3 3 2 2 1 0 1 1 1 2 3 3 4 4 5 5 6 6 6 7 7 7 7 7 7 7
3 2 2 3 3 3 3 2 0 1 0 2 2 3 2 1 1 1 3 3 1 2 2 3 2 2 1 3 2 3 3 3 8 7 6 6 6 5 5 6 9 9 8 8 8 8 7 8 7 7 7 6 5 5 5 4 4 3 2 1 1 1 1 1 1 2 2 3 3 3 3 4 5 5 5 6 6 7 7 7 7 7 7 7 8
2 3 4 2 3 3 2 2 1 2 3 1 2 4 3 2 3 3 2 1 2 2 2 3 3 3 3 7 6 4 2 2 4 7 8 7 6 5 5 5 6 8 9 8 9 8 8 7 7 7 6 6 5 5 5 4 4 3 3 3 3 3 3 3 3 3 3 3 3 4 4 5 5 5 5 6 6 6 6 6 7 7 7 7 7
4 5 3 2 3 3 4 3 2 2 2 2 3 2 2 2 3 1 1 2 2 3 4 4 4 5 3 1 0 4 5 2 2 5 8 8 7 6 5 5 5 5 5 9 8 8 8 7 7 6 6 6 5 5 5 5 4 4 5 5 5 5 5 5 5 5 5 5 5 6 5 5 6 6 6 6 6 6 6 6 6 6 6 6 6
5 4 3 3 3 2 3 2 3 2 2 3 3 3 2 4 2 4 5 4 2 3 3 4 3 2 4 2 2 1 4 4 2 4 4 6 7 7 6 6 5 5 5 5 7 8 8 8 8 7 7 7 6 6 6 6 5 5 5 6 6 6 6 6 6 6 7 6 6 6 6 6 6 7 6 6 6 5 5 5 5 5 5 5 4
6 5 5 4 4 3 3 2 4 3 2 4 4 3 3 1 2 3 4 6 6 8 8 6 6 4 3 4 4 3 2 2 2 4 6 7 6 6 6 5 6 5 6 4 4 6 9 9 8 8 8 8 7 7 7 7 7 7 7 7 7 7 7 6 7 7 7 7 7 7 7 6 6 7 6 6 5 5 5 4 4 3 4 4 4
8 6 4 3 3 3 4 4 3 2 2 4 5 3 2 2 3 6 9 5 4 7 4 4 3 4 2 2 5 2 2 4 3 3 4 4 7 8 6 6 6 8 5 5 5 4 8 10 10 10 9 9 9 9 8 8 8 8 8 8 8 8 8 7 7 7 7 8 8 7 7 7 7 6 6 5 5 5 4 4 4 4 4 3 3
6 5 4 4 3 3 4 3 2 1 1 2 2 2 3 2 6 8 5 1 5 2 3 3 4 5 3 4 3 3 4 2 3 2 2 3 1 5 8 8 6 7 6 6 6 5 5 9 11 10 10 10 10 10 9 9 9 9 9 9 9 9 9 8 8 8 8 7 8 8 8 7 7 6 6 5 5 5 4 4 4 4 4 3 3
8 6 5 4 2 2 2 4 3 2 1 1 3 2 1 3 2 1 3 4 1 2 2 3 2 3 5 4 2 3 2 3 1 4 2 2 4 5 5 4 5 6 6 5 5 5 5 5 5 5 6 12 12 12 11 11 10 10 10 10 10 9 9 8 8 8 9 9 9 8 8 7 7 7 6 5 5 5 4 5 5 4 4 3 3
5 6 5 5 3 2 3 4 3 1 2 2 2 4 3 4 2 1 3 3 1 1 0 1 3 3 3 4 2 1 2 3 2 3 6 4 2 2 4 5 3 4 5 6 5 6 6 6 6 5 5 9 13 12 12 12 12 11 12 11 10 10 9 9 9 9 9 9 9 9 8 8 7 7 6 6 6 6 6 6 5 5 4 4 4
6 6 5 4 3 3 1 2 4 2 2 1 1 1 1 1 2 1 3 2 2 1 2 2 3 2 2 4 2 3 2 2 6 5 3 3 3 2 3 4 5 5 4 5 6 7 8 7 7 6 6 5 8 12 13 13 12 12 12 12 11 11 10 10 10 10 10 9 9 8 8 8 8 8 7 7 7 6 6 6 6 6 6 6 5
6 6 6 6 4 3 4 3 2 3 1 1 1 1 1 2 1 1 3 1 2 3 2 2 1 3 3 4 3 1 1 3 4 5 5 4 4 3 3 4 6 6 5 4 4 5 7 9 7 7 6 6 6 6 7 8 9 12 12 13 12 12 12 11 11 10 9 9 9 8 9 8 8 8 8 9 8 8 8 7 7 7 8 6 6
5 6 5 6 5 4 4 4 4 3 2 0 0 1 0 2 1 1 1 2 1 2 1 3 1 2 2 1 3 3 1 0 2 3 7 7 4 5 4 4 5 4 4 6 5 5 4 4 5 6 7 7 7 6 6 7 8 13 14 13 13 13 13 12 11 10 10 10 10 9 9 9 9 9 9 9 9 9 8 8 8 8 8 7 7
6 5 4 6 7 7 6 4 5 4 4 3 3 2 2 2 0 0 1 3 3 2 1 1 2 4 2 2 3 3 2 1 2 3 3 2 5 8 3 5 5 2 2 2 3 4 2 4 4 3 2 3 5 7 6 6 12 15 16 14 13 11 13 13 12 11 10 10 10 10 9 9 10 10 10 10 10 9 9 9 9 9 9 9 9
5 5 4 4 4 5 7 6 5 5 5 3 3 4 5 2 2 2 3 2 1 2 2 2 2 2 1 0 1 1 1 4 2 3 2 4 7 7 1 7 4 4 3 2 3 3 4 6 5 5 3 3 2 2 4 7 6 6 9 12 13 12 12 13 12 12 11 11 11 10 10 9 9 9 11 11 11 11 11 10 11 10 10 10 10
4 5 4 3 3 3 3 5 4 5 4 5 5 4 3 2 2 2 2 3 3 1 3 3 2 1 2 1 3 1 3 1 1 1 4 5 3 3 4 8 6 6 5 5 3 3 2 7 5 6 5 3 5 5 4 5 5 5 5 7 14 13 13 13 13 13 12 12 11 11 11 10 10 11 11 11 12 12 12 11 11 11 11 11 11
5 5 5 3 3 3 3 3 5 4 6 5 4 4 3 3 3 2 3 3 2 2 3 3 1 2 5 2 2 4 3 1 2 2 1 2 2 3 4 9 8 8 6 8 7 6 5 6 7 7 4 4 4 3 2 4 9 8 12 12 14 14 14 13 14 14 13 13 12 12 12 12 11 12 12 12 13 12 12 12 11 12 12 12 12
5 6 5 5 4 4 4 3 3 5 5 5 4 5 4 5 7 4 2 1 1 3 2 5 4 2 2 1 3 2 3 2 3 2 1 1 2 1 5 6 9 7 7 6 8 5 8 4 6 7 6 5 4 4 4 5 4 5 5 12 14 15 14 14 14 15 14 14 14 13 13 13 13 11 12 14 14 14 13 13 12 12 13 13 13
4 6 5 5 5 4 4 4 3 3 4 4 4 7 6 4 4 4 4 2 2 2 2 2 3 3 1 3 2 2 4 3 2 1 1 2 4 1 2 3 3 2 2 0 5 4 6 2 1 6 9 6 5 4 5 5 6 6 7 11 14 14 14 14 14 16 15 15 15 14 15 14 14 14 14 15 15 15 15 14 14 14 14 15 15
5 4 7 5 6 5 4 5 4 5 4 3 3 4 4 5 3 3 4 2 0 2 1 1 2 2 2 2 2 3 3 1 3 4 3 1 3 0 2 3 3 1 1 0 4 3 1 5 5 3 5 6 7 6 4 4 5 5 8 13 14 14 15 14 15 16 16 16 15 16 15 15 15 15 15 15 15 16 16 15 16 16 16 16 16
6 5 6 7 6 6 6 6 5 4 3 2 2 3 5 5 4 3 3 4 4 4 3 1 1 2 4 3 3 3 3 2 2 1 1 1 2 2 4 2 3 4 1 4 1 1 1 1 2 1 5 4 6 6 6 5 6 8 11 15 15 15 15 15 16 16 16 15 16 16 16 16 16 16 16 16 16 16 17 16 17 17 17 17 17
6 7 6 9 6 6 5 4 5 3 4 2 2 3 3 5 4 4 2 4 8 4 2 2 2 2 2 4 4 5 4 4 3 2 4 1 1 3 4 1 2 2 2 3 4 5 3 3 4 3 4 3 4 5 6 6 6 9 8 14 15 16 15 15 15 16 16 16 16 16 16 16 16 17 17 17 17 17 17 18 18 19 19 18 18
6 6 8 8 6 6 6 5 4 4 2 3 3 3 3 1 5 5 4 3 2 2 2 2 3 4 5 5 6 6 4 5 2 4 3 5 5 3 2 4 1 0 2 2 1 2 2 4 5 2 5 4 4 4 4 5 4 9 11 10 16 15 16 16 16 16 17 17 17 16 16 17 17 16 16 17 18 18 18 19 19 19 20 19 18
6 6 7 9 7 7 6 5 4 4 3 3 3 2 1 2 2 3 4 3 2 3 2 3 3 3 3 4 2 2 3 6 3 2 4 6 4 2 1 2 4 1 1 3 4 3 4 2 1 2 3 4 3 4 5 5 4 11 14 9 13 16 16 16 17 17 17 18 18 18 18 19 18 18 17 18 18 18 18 19 20 20 21 20 20
7 6 5 7 8 8 8 6 5 4 4 4 3 2 2 2 2 2 1 4 3 2 3 4 4 3 2 2 2 5 3 5 0 5 2 4 4 3 3 2 3 3 2 0 2 4 2 4 6 5 5 4 4 4 6 5 5 9 13 9 6 15 16 17 17 17 17 18 18 19 19 20 19 19 20 20 19 19 19 20 19 20 20 19 19
7 6 7 5 8 8 8 7 6 6 5 5 4 4 3 3 3 2 2 2 3 4 2 2 3 3 3 2 0 4 5 2 4 4 6 5 4 3 3 2 1 2 2 2 2 2 6 4 3 5 5 6 5 3 4 5 5 6 11 6 6 7 16 17 17 18 18 18 19 19 20 20 21 21 21 20 21 21 21 21 20 20 19 19 19
8 7 8 6 7 7 8 8 7 6 6 5 5 4 4 4 4 3 3 3 2 3 2 3 3 4 3 4 2 2 3 3 3 4 3 4 3 2 2 0 1 0 1 1 3 3 4 6 2 3 5 4 4 5 4 5 6 5 4 6 6 6 11 17 17 18 18 18 19 19 19 20 20 21 21 22 22 21 21 20 20 20 20 20 20
9 9 7 9 6 8 7 7 8 7 7 7 6 5 4 4 4 4 4 3 2 2 3 2 3 3 4 2 5 4 3 2 2 4 2 4 2 1 0 1 3 3 1 1 3 2 4 5 5 1 2 3 4 3 4 5 8 9 5 7 7 7 11 14 16 17 18 19 19 19 19 19 20 20 20 20 20 20 20 20 20 20 21 21 21
7 6 9 9 7 8 7 8 7 7 7 7 6 5 5 4 5 4 4 4 3 2 2 3 3 3 2 4 1 3 3 3 2 3 3 5 4 2 2 3 3 3 3 2 2 3 2 4 3 5 2 3 5 5 6 6 8 9 7 6 6 9 12 9 13 14 16 17 17 18 18 18 19 19 19 19 19 19 20 21 21 21 21 21 21
8 8 9 9 9 10 9 10 9 9 8 7 7 6 5 5 5 5 5 5 4 3 4 5 5 4 3 3 3 2 2 2 2 2 2 4 5 5 4 4 3 3 3 3 4 7 3 4 6 5 7 5 5 5 4 2 2 11 7 6 7 10 8 7 11 13 14 16 17 18 19 19 19 20 20 20 20 20 21 21 22 22 22 22 22
9 9 10 9 10 10 11 10 11 9 8 8 7 6 6 6 5 5 4 7 6 5 4 4 4 3 3 3 3 3 2 2 2 3 3 3 4 4 3 3 4 4 5 4 5 7 5 5 6 6 5 5 8 5 6 4 4 3 4 4 5 6 6 6 6 10 13 15 17 18 19 19 19 19 20 20 20 20 21 21 22 22 22 22 23
10 11 10 10 10 11 11 10 9 10 9 9 9 7 7 7 7 6 6 4 7 6 5 5 4 4 3 5 4 4 3 3 3 4 4 4 3 5 6 6 5 5 6 5 6 6 8 4 5 5 6 4 7 4 4 3 3 3 4 4 3 3 5 5 6 6 12 13 14 16 17 17 17 18 19 20 20 21 21 21 21 21 21 22 22
10 10 10 11 10 11 10 9 9 9 10 10 9 8 8 8 8 8 7 7 6 7 6 6 6 5 5 4 5 5 5 4 5 5 5 4 4 3 4 6 7 6 6 7 6 6 8 7 5 6 5 4 4 4 4 3 3 4 5 5 5 4 4 5 5 6 9 13 14 13 14 16 17 18 18 19 19 20 20 20 21 21 21 21 22
12 10 11 11 10 10 11 10 10 8 10 10 10 9 9 9 9 8 7 7 7 7 7 7 7 6 7 6 6 6 6 5 4 4 5 5 5 4 4 4 3 2 2 2 5 6 5 7 5 6 4 5 5 4 4 3 4 5 5 5 5 6 6 6 6 7 9 13 14 16 16 16 16 16 17 17 18 19 19 19 20 20 20 21 21
13 11 10 11 10 11 12 10 11 11 10 11 11 11 10 9 10 9 8 6 7 7 7 7 7 7 7 7 7 7 5 5 5 5 5 5 6 5 4 4 4 4 3 3 4 4 5 8 8 5 4 4 3 4 4 5 5 5 5 5 4 4 4 5 6 8 10 11 12 15 17 17 16 16 17 19 19 20 19 19 20 19 20 20 20
12 13 12 12 11 11 11 11 11 11 10 10 10 10 11 10 10 9 9 8 8 8 8 8 8 7 7 7 7 7 7 7 6 5 5 6 6 6 5 4 3 3 4 4 4 5 6 7 7 8 5 6 5 5 4 5 5 5 3 4 4 3 3 5 6 7 7 7 7 8 9 8 11 15 18 18 19 18 18 19 19 18 19 19 19
14 15 14 13 11 12 12 11 11 11 11 11 10 10 10 9 10 10 10 9 9 8 8 10 9 9 9 8 8 8 7 7 7 6 5 6 6 6 5 5 5 4 4 4 4 5 6 7 7 7 8 5 6 5 3 4 4 4 5 5 5 4 5 4 5 5 6 8 9 12 13 13 13 12 13 15 16 16 17 17 17 18 19 19 19
16 15 16 15 12 12 12 12 11 11 11 11 10 10 10 9 9 10 10 9 10 9 9 9 9 10 10 10 10 9 8 7 7 6 6 5 5 6 6 5 4 4 5 5 5 5 6 6 7 6 4 4 3 4 5 4 4 5 5 4 4 3 4 3 4 7 6 6 7 7 9 10 7 9 11 12 12 12 14 16 17 17 18 18 18
14 15 15 15 13 13 12 12 11 11 12 11 10 11 11 11 9 10 11 10 9 9 9 10 10 10 10 10 10 10 9 12 12 10 9 7 5 5 5 5 4 4 4 5 6 6 7 7 8 6 6 6 5 6 6 4 5 7 2 1 2 3 4 5 5 6 8 7 5 5 6 6 7 7 7 8 9 12 12 15 13 13 14 15 16
11 11 11 13 15 14 13 13 12 11 11 10 12 17 15 11 10 10 9 10 10 9 9 9 10 10 11 11 10 14 15 16 16 15 14 13 11 7 4 4 5 5 5 5 6 6 6 7 7 6 6 6 4 4 4 2 3 2 3 3 4 4 5 6 6 5 5 6 5 5 6 6 8 8 8 9 9 9 8 8 9 12 13 13 12
12 10 10 12 15 14 14 14 14 12 11 11 17 17 18 18 13 10 9 9 10 9 9 8 9 9 9 9 8 9 7 10 14 17 16 16 15 14 12 8 4 2 3 5 6 6 7 8 7 6 6 6 4 3 3 4 3 2 2 3 4 5 5 7 9 6 2 5 6 7 8 6 6 9 8 8 9 8 8 8 12 15 17 13 11
11 10 11 11 11 13 13 14 15 13 12 13 17 18 18 18 15 11 10 9 9 10 10 9 8 8 9 8 8 9 7 6 6 10 14 16 16 16 15 13 12 10 8 7 6 6 6 7 7 7 5 5 4 2 2 3 3 4 4 4 5 5 6 6 7 8 6 6 8 9 10 6 5 6 8 8 8 7 7 11 14 14 16 19 19
12 11 11 11 11 11 13 13 14 13 12 14 18 19 19 18 18 13 10 9 9 10 10 10 9 8 8 8 7 6 8 13 11 9 10 11 14 17 15 13 12 13 14 14 12 10 7 8 9 9 7 4 5 2 1 1 0 3 3 4 4 5 5 6 7 8 10 7 8 8 9 6 5 7 7 6 5 5 8 10 15 17 18 18 19
12 12 12 11 10 10 10 12 12 12 13 12 19 20 20 20 19 15 10 10 9 9 9 10 10 9 8 8 8 8 6 5 4 7 8 9 9 9 8 6 8 12 14 15 17 16 11 10 9 11 10 5 7 5 4 3 4 5 4 4 2 5 6 7 8 9 10 8 8 8 8 7 5 4 4 5 5 6 6 11 16 18 16 14 13
11 12 12 11 10 10 10 9 11 12 13 16 19 21 20 21 20 14 10 9 8 8 8 9 9 10 9 9 8 8 7 7 6 6 7 8 7 7 9 8 10 9 9 10 11 11 10 10 11 11 12 10 10 10 7 6 6 3 0 1 2 4 5 6 7 8 9 9 7 3 6 6 4 5 4 5 7 7 6 10 15 11 16 21 24
11 10 9 10 11 11 11 10 10 12 10 18 20 21 21 20 20 9 10 10 8 6 6 8 9 9 9 8 8 8 8 7 9 12 9 7 7 8 8 8 8 9 10 11 13 12 12 11 12 13 11 12 8 6 1 1 2 2 2 2 3 4 4 5 6 6 6 4 5 5 5 5 4 7 8 6 6 7 8 6 8 17 17 17 19
12 12 12 13 9 11 12 10 10 9 7 14 20 22 21 22 15 8 12 10 10 9 6 5 5 6 8 9 8 8 9 9 10 12 12 9 6 8 8 8 8 9 8 8 15 19 18 18 17 18 16 3 3 1 3 3 2 1 1 3 5 3 4 4 4 4 4 6 4 6 3 6 7 8 10 7 6 7 6 5 7 10 12 14 14
14 14 13 12 11 11 13 12 14 9 8 11 19 20 21 21 18 12 12 10 10 10 8 8 6 6 7 11 11 9 9 8 11 13 12 10 8 8 8 8 8 9 7 6 5 5 12 13 9 2 2 3 2 4 7 9 5 4 3 6 4 2 4 4 4 4 4 3 4 6 5 3 6 4 7 8 6 2 4 5 7 5 9 9 10
12 10 11 11 11 10 14 14 15 13 11 10 18 19 19 20 17 12 11 10 10 9 10 10 10 9 8 10 14 12 11 11 12 12 13 12 9 9 9 8 9 10 8 4 4 5 2 3 5 5 4 5 7 6 7 13 12 8 6 7 3 2 5 4 4 4 3 1 3 5 5 5 6 3 5 7 8 5 2 5 6 7 7 5 5
Wind_Direction
124 100 102 93 110 100 134 159 153 163 171 186 198 158 83 138 60 5 351 318 268 210 218 220 261 230 233 162 99 146 151 124 127 133 130 138 153 159 161 161 158 154 151 149 146 146 145 144 144 141 139 134 131 130 128 124 125 126 131 136 135 135 130 137 126 122 106 80 57 32 21 13 2 352 350 352 355 355 356 359 2 5 6 9 7
105 97 123 127 133 134 137 154 197 198 176 166 181 157 174 172 159 170 186 229 218 222 345 275 236 210 211 205 148 161 143 146 140 136 141 149 146 163 168 167 165 163 160 157 156 152 152 151 148 149 145 145 139 138 138 138 133 137 135 136 136 131 122 116 113 82 76 86 11 357 354 352 338 343 339 347 344 347 348 351 356 358 2 7 6
140 154 161 155 152 143 159 166 169 199 139 217 151 116 62 336 81 136 217 240 261 266 246 244 149 249 183 195 144 161 176 157 145 149 150 132 135 151 169 169 168 167 166 164 162 162 158 159 160 157 157 156 155 153 153 153 151 147 146 137 147 146 135 148 277 284 344 333 341 340 326 321 325 321 323 328 334 339 342 345 349 352 358 4 3
129 121 128 145 127 130 152 129 93 129 302 337 334 57 89 316 128 181 216 233 310 320 263 236 255 245 199 106 246 188 168 173 154 155 134 131 140 154 163 174 173 173 175 172 173 173 173 168 167 168 163 172 161 174 165 167 163 164 157 189 192 210 218 217 270 286 307 327 310 298 304 296 298 303 312 319 328 329 332 339 342 348 357 356 2
150 169 155 150 132 133 128 122 184 180 185 120 48 51 349 336 291 219 202 235 248 239 242 246 217 216 215 166 187 188 148 252 119 143 140 142 150 152 166 166 169 176 180 183 184 184 182 179 176 176 174 178 185 188 194 182 190 194 211 215 239 239 247 270 271 301 290 278 277 268 267 277 289 302 309 313 314 321 326 332 339 346 355 354 5
166 155 156 147 154 173 143 163 171 181 136 159 112 112 10 339 255 283 281 229 231 243 231 228 213 177 183 193 215 141 176 232 150 132 150 156 154 159 157 160 161 167 174 185 189 191 189 185 184 186 189 190 195 206 206 207 204 211 221 227 228 243 248 246 251 256 259 254 257 265 271 274 282 289 297 302 308 313 318 328 335 340 348 356 10
160 143 170 164 142 147 133 147 201 176 138 95 56 36 110 256 326 359 315 286 239 258 197 235 221 163 172 177 229 231 114 163 208 157 138 123 149 160 158 158 161 167 167 172 189 194 192 191 186 186 191 196 204 207 215 220 220 218 222 226 229 236 241 243 243 248 245 248 253 260 266 271 277 283 290 296 302 307 311 318 326 335 334 354 13
156 162 172 162 164 151 151 164 176 161 160 122 116 136 227 126 349 15 303 245 183 226 195 198 200 157 152 181 96 291 142 80 192 143 138 139 152 157 157 159 168 166 168 171 170 191 195 192 189 191 192 197 203 206 211 216 218 219 223 224 227 231 235 237 242 243 246 249 253 260 267 273 276 279 279 285 296 302 302 309 311 323 327 356 8
151 158 154 151 126 172 169 166 164 181 129 138 150 195 125 184 169 197 228 222 231 162 168 182 173 135 149 137 148 162 82 168 198 121 126 122 144 153 152 169 166 178 165 170 166 176 193 195 194 194 199 200 205 207 209 214 215 217 221 225 227 231 231 232 238 242 246 248 253 257 259 262 267 267 269 275 283 292 303 302 307 312 327 337 344
126 131 138 161 168 156 158 164 133 143 158 108 111 71 203 163 196 193 220 207 248 150 192 162 153 121 154 124 147 148 143 148 89 104 139 128 175 125 156 169 173 170 178 168 170 154 175 197 198 201 203 203 206 211 212 218 221 218 220 225 229 230 230 231 232 239 244 251 254 254 258 260 259 262 265 266 272 283 289 287 286 295 308 319 319
142 149 149 141 153 151 147 150 141 158 161 141 139 162 279 274 268 277 262 249 186 341 56 97 51 108 123 111 118 122 149 89 81 70 8 201 149 146 136 132 152 157 174 172 150 159 163 173 188 197 207 209 207 207 213 216 218 223 223 223 228 231 237 239 238 241 245 246 247 250 256 256 259 264 269 274 272 279 285 287 290 293 289 292 310
147 142 136 151 147 180 154 124 138 158 161 204 121 140 203 208 132 270 299 288 30 225 198 45 86 72 97 129 119 67 133 163 104 142 174 168 170 153 127 151 137 143 153 148 164 169 162 168 183 194 198 203 210 209 212 214 216 220 221 225 227 232 236 236 238 241 243 247 249 250 253 260 266 261 256 260 267 271 269 267 269 270 273 279 285
146 144 152 146 152 121 114 124 136 189 187 207 198 86 135 268 147 229 283 268 149 186 356 69 95 160 203 112 152 160 137 158 169 177 152 107 98 143 152 152 163 159 139 167 165 166 167 173 184 193 181 169 206 214 213 213 217 218 222 225 228 231 231 233 239 242 241 245 248 251 253 257 261 260 260 258 260 261 259 258 256 264 272 279 260
154 153 161 154 149 160 151 177 171 182 194 182 172 107 86 283 90 290 257 256 261 143 143 113 291 176 190 141 110 224 136 163 176 157 158 152 170 176 182 172 150 157 155 150 190 178 170 174 173 187 168 174 187 198 207 215 217 218 220 225 228 229 229 232 236 239 242 247 251 247 246 245 242 249 251 257 258 258 259 257 259 259 267 257 248
173 159 164 168 158 154 175 170 178 155 149 317 15 147 192 274 166 201 341 298 189 61 134 284 182 65 18 142 153 143 312 2 295 163 170 167 179 170 179 130 100 92 165 167 185 191 181 129 146 155 170 181 185 186 193 201 205 210 214 219 224 227 231 235 238 239 239 238 239 244 247 238 236 246 247 248 252 256 257 255 254 256 251 251 252
177 176 181 173 170 172 168 175 165 189 144 169 209 163 232 217 224 301 295 281 196 165 158 40 10 126 124 236 196 135 152 296 204 245 119 167 167 123 196 116 107 96 325 202 141 125 115 133 149 132 171 197 151 182 196 190 204 204 205 212 217 225 233 234 235 238 240 241 243 243 244 244 241 242 248 249 251 250 249 250 252 250 245 250 246
170 186 197 167 173 165 156 170 158 153 159 169 199 181 201 208 186 196 229 257 19 127 171 124 49 4 90 354 75 348 109 191 141 332 269 163 170 134 55 116 137 162 220 89 116 148 189 143 145 165 190 152 216 210 197 180 183 181 199 209 212 218 224 232 235 237 240 244 245 243 242 238 239 246 246 247 249 249 250 248 249 246 247 247 242
177 181 193 176 173 177 155 144 167 158 175 194 199 178 176 234 182 183 306 283 305 212 106 70 68 282 289 177 183 166 186 316 56 329 304 333 46 88 164 136 162 182 200 163 183 190 203 141 171 169 170 203 192 189 205 152 156 175 177 202 212 212 217 222 229 233 237 239 242 244 245 238 234 233 240 244 244 246 246 245 243 243 240 241 240
192 181 179 183 161 175 187 170 173 171 189 187 196 175 177 131 290 158 192 259 339 306 138 115 117 248 236 187 22 17 11 103 108 200 324 322 349 160 159 151 179 179 195 201 182 187 193 162 184 167 180 195 177 178 149 162 172 187 190 196 202 205 210 217 223 231 233 236 238 241 242 242 233 226 232 238 245 246 245 244 240 241 238 237 238
194 164 179 170 170 174 187 193 200 178 194 190 179 171 177 163 197 168 213 121 298 311 333 136 170 257 28 18 108 21 355 30 60 45 207 6 320 298 198 181 179 187 197 232 164 182 163 201 183 154 167 197 183 176 178 201 178 163 176 183 193 200 209 214 221 225 232 236 238 238 240 242 246 238 225 233 239 242 244 244 244 239 236 237 239
207 160 177 170 176 176 184 194 209 219 185 198 194 168 179 172 147 160 146 197 158 250 338 347 309 113 358 5 42 176 221 121 115 148 24 56 281 165 52 341 65 77 80 34 137 199 155 148 107 145 174 180 179 183 198 185 176 176 182 182 190 198 205 213 216 223 226 232 237 238 239 241 242 243 240 234 233 239 242 241 241 239 237 237 239
192 181 162 184 174 178 188 192 202 211 199 218 209 149 155 151 174 152 124 175 231 319 258 224 299 77 115 119 14 343 4 41 162 207 64 296 272 5 250 138 92 314 231 309 48 359 111 168 181 184 162 166 177 187 198 191 178 180 186 188 194 199 205 210 215 220 224 228 233 237 238 238 240 241 242 241 239 239 241 241 241 238 237 237 237
180 187 174 177 181 184 196 186 201 199 199 263 218 185 169 173 171 158 167 117 20 275 236 208 64 331 116 137 204 195 199 184 256 49 131 161 10 319 259 357 125 159 5 76 349 6 36 316 248 187 168 176 178 178 186 192 176 196 195 188 195 201 207 212 216 219 223 227 229 232 236 238 238 239 240 239 240 239 237 236 236 237 238 236 237
178 172 189 183 178 183 202 192 181 203 180 218 249 230 199 161 153 151 166 162 175 200 273 223 182 216 225 169 206 238 185 235 206 163 145 90 79 304 325 181 320 126 180 155 188 209 186 231 199 194 161 163 184 174 184 183 197 190 177 190 196 203 210 213 215 220 224 227 229 232 236 238 238 239 238 239 238 238 238 236 235 235 237 237 236
182 180 178 189 168 178 189 204 167 194 195 183 234 255 37 7 141 156 177 169 183 188 169 233 236 176 230 188 195 222 179 216 192 165 174 157 182 230 308 27 257 187 62 80 335 324 211 204 215 175 158 152 179 165 162 180 188 182 186 192 199 204 211 216 220 223 225 227 230 231 233 236 238 239 239 239 239 238 238 237 236 236 235 235 235
195 197 180 183 172 174 181 191 183 179 201 193 203 187 150 314 144 175 177 169 184 186 193 223 241 235 264 303 288 252 186 184 163 258 179 163 199 177 57 358 320 4 235 154 217 231 229 254 140 120 130 170 186 171 195 198 217 193 198 195 202 207 212 217 222 224 226 228 230 232 234 235 235 235 236 237 237 238 238 238 237 236 236 235 235
202 191 206 168 171 168 176 187 185 187 181 190 200 185 180 206 303 175 233 149 180 202 198 215 236 224 222 241 272 290 350 357 165 183 338 36 64 79 95 53 338 335 324 335 226 230 283 187 204 166 176 192 191 194 191 208 232 202 205 207 198 211 216 220 225 227 229 230 231 233 234 235 234 234 235 235 234 235 235 236 236 237 237 237 237
191 186 199 182 170 168 169 183 184 185 180 190 196 188 186 193 199 210 224 217 171 184 218 253 239 244 245 219 46 320 320 295 344 7 53 62 58 72 110 138 113 309 337 320 305 272 232 229 232 152 182 187 214 211 225 216 221 207 201 212 220 209 216 223 227 230 231 232 233 234 236 236 237 237 237 235 236 236 237 237 238 238 238 238 238
181 189 184 195 172 172 168 184 182 182 185 188 194 198 180 194 192 204 205 238 188 182 191 208 257 243 209 227 195 241 301 346 346 330 91 80 58 62 54 146 162 99 301 294 304 298 323 337 335 194 178 185 193 219 216 218 227 212 190 213 222 230 211 219 228 233 234 236 237 238 238 239 241 242 242 243 242 242 242 241 241 241 240 240 239
183 190 182 185 179 175 169 178 178 187 190 190 192 201 192 192 198 193 204 222 216 181 186 229 233 233 273 250 176 194 211 259 230 254 124 139 136 156 163 229 135 171 196 268 287 312 302 311 294 338 288 202 209 223 218 216 212 218 209 208 221 228 233 221 225 232 236 238 240 240 241 242 244 245 246 248 249 250 250 249 247 245 244 243 242
183 181 175 179 181 177 176 177 176 183 189 190 186 195 196 200 204 196 203 199 223 196 183 200 241 252 244 259 201 197 205 227 257 236 170 145 159 202 208 179 174 191 220 218 265 267 250 277 306 312 291 228 231 222 214 214 225 221 221 227 226 234 243 245 234 235 241 245 246 247 247 248 248 248 249 249 250 249 250 250 250 249 248 248 247
190 181 176 177 184 181 185 185 184 186 188 196 189 191 196 199 209 208 196 189 199 211 211 202 215 213 231 243 240 267 281 295 268 293 291 165 164 179 208 191 196 202 197 228 234 263 284 289 288 294 289 279 245 257 275 288 221 216 232 231 236 242 251 253 257 246 241 244 246 247 248 247 246 247 247 248 248 248 248 248 249 249 250 251 251
188 186 177 180 181 187 189 188 189 185 185 191 190 187 192 194 212 213 219 177 195 202 208 240 238 197 204 227 236 227 218 239 232 259 271 249 168 170 204 214 204 197 203 214 243 266 268 249 261 266 283 295 288 283 289 291 284 266 227 230 237 243 247 251 257 257 252 247 248 248 249 249 248 248 249 249 249 249 249 249 250 250 250 250 251
186 188 183 183 184 185 190 188 192 181 181 181 190 188 188 198 203 209 225 201 189 205 203 212 230 243 203 209 234 241 219 213 235 234 243 260 217 184 186 206 217 220 202 209 224 245 266 268 272 271 273 266 282 281 280 293 317 341 318 308 288 253 246 249 253 254 254 255 254 258 258 257 256 254 253 251 252 252 252 252 252 253 251 251 250
186 187 187 190 186 182 191 187 191 183 177 182 188 189 192 196 200 209 205 210 199 198 209 213 211 214 233 229 222 224 228 222 212 235 253 257 266 257 209 200 207 213 210 202 213 239 258 264 252 272 267 270 267 310 328 335 329 315 308 301 300 305 302 290 291 297 295 285 275 256 250 252 251 252 252 252 253 254 255 255 254 253 252 252 252
188 186 184 192 187 181 189 186 186 190 178 182 186 192 192 193 200 210 210 201 208 203 206 211 212 208 211 220 229 226 222 223 217 213 218 241 260 257 273 285 279 262 245 212 204 229 248 269 260 255 272 283 280 278 286 287 288 282 269 272 263 265 267 276 284 281 265 256 257 261 256 251 252 254 254 255 256 255 254 254 253 252 253 254 254
188 187 184 189 190 185 189 188 183 190 187 183 186 194 193 193 198 204 213 208 204 207 209 213 214 210 212 215 218 227 232 226 219 214 218 231 230 242 241 230 231 241 251 251 262 261 268 271 279 268 266 264 268 271 263 270 264 253 246 243 252 263 271 278 285 285 294 285 275 269 267 267 262 258 255 254 253 253 254 255 254 253 252 253 254
186 189 187 188 190 188 189 190 186 185 187 186 187 195 198 195 194 203 205 212 210 207 211 215 218 218 219 217 221 220 223 228 228 217 215 226 233 230 235 241 226 215 223 230 234 245 252 261 268 283 273 271 272 249 231 226 251 267 260 259 262 261 262 267 264 282 287 290 300 301 290 270 252 250 253 254 257 259 260 260 260 261 260 258 257
191 190 192 191 190 187 189 191 192 185 187 189 188 194 202 200 194 198 206 206 213 211 211 216 220 217 220 222 219 218 225 227 226 225 217 218 229 242 233 226 226 231 243 247 237 241 245 254 259 257 270 257 243 268 232 216 234 242 270 278 274 245 240 252 280 271 276 279 276 276 279 277 279 280 275 271 267 268 270 270 267 264 262 259 257
195 192 192 192 190 187 189 194 194 189 188 190 191 194 200 203 194 195 205 208 210 214 216 217 220 223 216 219 223 218 219 222 225 226 227 226 212 226 232 233 229 228 237 244 245 247 252 257 257 270 271 292 301 284 269 258 258 267 244 237 266 300 294 276 278 296 291 291 292 285 291 301 297 289 290 290 286 274 269 273 272 264 260 258 257
197 195 191 189 191 190 189 193 195 192 192 194 193 193 196 203 202 198 200 209 212 210 215 221 221 222 227 223 219 221 208 209 216 219 227 226 229 226 224 224 232 231 233 228 241 250 258 264 270 272 275 278 273 273 272 253 242 245 241 34 326 303 300 303 290 283 285 291 291 299 309 325 312 302 305 311 307 305 299 296 293 280 266 257 253
199 198 193 182 190 190 188 190 195 196 195 197 195 192 192 197 203 206 199 204 212 215 211 216 223 220 224 232 235 221 211 204 205 211 215 223 226 231 232 221 222 226 228 238 240 248 254 259 263 266 271 268 271 276 278 268 274 357 19 5 317 309 307 293 283 275 293 297 308 315 308 307 308 307 306 299 301 298 295 297 295 295 297 296 288
198 198 198 186 188 192 193 192 195 200 199 201 191 189 193 196 198 205 203 198 205 213 217 211 219 225 225 222 234 252 242 210 206 205 211 215 221 224 229 232 230 208 242 244 242 241 248 255 260 256 257 265 258 268 303 313 20 26 342 337 312 312 310 314 308 303 276 347 324 310 301 302 307 298 294 289 292 294 290 284 292 306 316 323 307
192 196 199 197 190 187 192 194 197 200 203 195 182 188 192 197 199 202 207 206 201 207 215 219 216 220 230 231 220 225 233 230 194 207 212 216 218 223 225 228 231 236 224 220 244 260 261 273 269 261 264 260 274 278 308 4 18 344 331 313 300 301 312 306 303 305 315 340 316 308 296 288 278 280 287 284 283 282 298 313 322 327 326 324 323
184 195 198 199 198 191 186 192 198 200 206 186 179 185 192 196 202 204 209 211 210 205 208 216 221 218 220 229 241 234 232 213 210 194 198 214 223 224 226 227 234 237 244 244 234 237 251 261 270 274 268 297 299 302 13 4 37 292 300 300 315 328 315 304 301 304 305 313 303 287 287 295 289 275 273 279 289 311 324 328 328 328 320 323 335
182 192 198 200 201 201 192 187 194 200 208 173 181 185 191 195 200 204 214 211 213 213 207 210 218 222 218 219 222 234 241 241 215 202 190 204 209 216 215 221 229 239 243 245 249 247 235 238 251 260 264 267 270 271 280 293 303 292 284 287 325 306 301 297 302 295 293 295 284 289 291 286 259 275 299 312 327 323 324 333 328 318 336 343 340
181 187 195 199 202 205 205 192 190 197 208 173 181 185 191 195 200 200 214 221 220 216 215 209 211 216 221 219 221 223 225 232 230 207 193 193 195 208 218 222 227 233 235 236 233 236 226 208 229 243 254 255 257 263 269 266 254 254 237 311 305 291 291 297 291 280 278 265 260 257 289 317 345 336 316 322 331 326 326 320 305 346 5 6 358
188 183 190 201 200 203 206 209 204 200 199 169 180 185 189 195 194 191 210 220 232 240 224 216 210 210 215 220 221 224 225 226 222 214 206 195 197 204 210 218 227 230 232 230 227 217 221 216 216 226 235 237 252 262 275 336 315 324 22 348 298 270 274 279 277 290 292 311 334 346 323 321 337 340 326 328 330 324 317 308 340 12 10 2 347
191 188 191 200 198 202 205 208 218 213 192 179 179 186 187 191 186 188 206 213 223 235 257 264 240 215 212 215 220 223 224 227 223 205 210 199 209 211 220 230 236 243 240 232 218 218 213 216 216 217 228 235 72 273 291 245 161 99 25 293 264 245 235 258 265 278 303 310 31 2 328 332 354 343 321 328 335 311 314 342 360 352 5 348 325
196 193 192 198 199 202 203 205 209 217 206 179 185 187 188 185 184 190 202 208 217 226 239 245 251 252 239 225 222 225 227 228 219 204 198 195 213 218 222 234 246 251 256 261 278 234 227 232 239 253 107 174 265 287 266 268 220 173 202 238 242 256 259 249 267 278 291 293 38 344 14 325 335 333 318 316 311 299 332 344 335 346 345 326 331
197 190 190 195 200 201 204 206 204 205 218 181 188 184 190 185 188 197 196 203 211 216 222 233 234 239 242 239 233 230 229 230 224 205 192 191 212 213 220 227 242 252 255 273 257 258 172 173 205 195 196 203 222 223 238 243 234 203 211 229 238 228 251 268 289 303 317 270 56 8 8 327 334 337 338 334 330 322 349 340 337 334 319 323 336